• în România
  • Lista ţărilor
  • Pe 7 zile
  • Temperatura apei
  • Hartă satelitară
  • Meteo pe hartă
  • Widget-uri
  • user-avatar
    Intrare

    Meteo pe oră la Banjul

    Astăzi, 19 Iunie, Marţi

    Timp Temperatura Precipitaţii Vânt Presiune Umiditate
    00:00 +26°C° 0,1 mm 5 m/s 761 mmHg 68%
    01:00 +26°C° 0,1 mm 5 m/s 761 mmHg 69%
    02:00 +26°C° 0,1 mm 5 m/s 760 mmHg 71%
    03:00 +26°C° 0 mm 5 m/s 760 mmHg 71%
    04:00 +25°C° 0 mm 4 m/s 760 mmHg 72%
    05:00 +25°C° 0 mm 4 m/s 760 mmHg 73%
    06:00 +26°C° 0 mm 4 m/s 761 mmHg 69%
    07:00 +27°C° 0 mm 4 m/s 761 mmHg 65%
    08:00 +27°C° 0 mm 4 m/s 761 mmHg 61%
    09:00 +29°C° 0 mm 4 m/s 761 mmHg 55%
    10:00 +30°C° 0 mm 4 m/s 761 mmHg 49%
    11:00 +33°C° 0 mm 4 m/s 761 mmHg 42%
    12:00 +33°C° 0 mm 5 m/s 760 mmHg 42%
    13:00 +34°C° 0 mm 5 m/s 760 mmHg 41%
    14:00 +34°C° 0 mm 6 m/s 759 mmHg 40%
    15:00 +33°C° 0 mm 6 m/s 759 mmHg 44%
    16:00 +32°C° 0 mm 6 m/s 758 mmHg 48%
    17:00 +30°C° 0 mm 7 m/s 758 mmHg 52%
    18:00 +29°C° 0 mm 6 m/s 759 mmHg 56%
    19:00 +28°C° 0 mm 6 m/s 759 mmHg 60%
    20:00 +27°C° 0 mm 5 m/s 760 mmHg 64%
    21:00 +27°C° 0 mm 5 m/s 760 mmHg 67%
    22:00 +26°C° 0 mm 5 m/s 760 mmHg 69%
    23:00 +26°C° 0 mm 6 m/s 760 mmHg 71%

    Mâine, 20 Iunie, Miercuri

    Timp Temperatura Precipitaţii Vânt Presiune Umiditate
    00:00 +26°C° 0 mm 6 m/s 760 mmHg 71%
    01:00 +26°C° 0 mm 5 m/s 760 mmHg 71%
    02:00 +26°C° 0 mm 5 m/s 759 mmHg 71%
    03:00 +26°C° 0 mm 5 m/s 759 mmHg 72%
    04:00 +25°C° 0 mm 5 m/s 759 mmHg 72%
    05:00 +25°C° 0 mm 5 m/s 759 mmHg 73%
    06:00 +26°C° 0 mm 5 m/s 759 mmHg 70%
    07:00 +26°C° 0 mm 5 m/s 760 mmHg 68%
    08:00 +27°C° 0 mm 5 m/s 760 mmHg 65%
    09:00 +28°C° 0 mm 5 m/s 760 mmHg 60%
    10:00 +30°C° 0 mm 5 m/s 760 mmHg 54%
    11:00 +32°C° 0 mm 6 m/s 760 mmHg 49%
    12:00 +32°C° 0 mm 6 m/s 759 mmHg 49%
    13:00 +33°C° 0 mm 6 m/s 759 mmHg 49%
    14:00 +33°C° 0 mm 6 m/s 758 mmHg 48%
    15:00 +32°C° 0 mm 6 m/s 758 mmHg 53%
    16:00 +30°C° 0 mm 6 m/s 758 mmHg 57%
    17:00 +29°C° 0 mm 6 m/s 758 mmHg 61%
    18:00 +28°C° 0 mm 6 m/s 758 mmHg 65%
    19:00 +27°C° 0 mm 6 m/s 759 mmHg 69%
    20:00 +26°C° 0 mm 6 m/s 759 mmHg 72%
    21:00 +26°C° 0 mm 6 m/s 760 mmHg 73%
    22:00 +26°C° 0 mm 5 m/s 760 mmHg 74%
    23:00 +26°C° 0 mm 5 m/s 761 mmHg 75%

    Poimâine, 21 Iunie, Joi

    Timp Temperatura Precipitaţii Vânt Presiune Umiditate
    00:00 +26°C° 0 mm 5 m/s 760 mmHg 77%
    01:00 +25°C° 0 mm 5 m/s 760 mmHg 78%
    02:00 +25°C° 0 mm 5 m/s 759 mmHg 79%
    03:00 +25°C° 0 mm 5 m/s 759 mmHg 80%
    04:00 +25°C° 0 mm 5 m/s 759 mmHg 81%
    05:00 +25°C° 0 mm 5 m/s 759 mmHg 82%
    06:00 +25°C° 0 mm 5 m/s 759 mmHg 78%
    07:00 +26°C° 0 mm 5 m/s 759 mmHg 74%
    08:00 +27°C° 0 mm 5 m/s 760 mmHg 70%
    09:00 +28°C° 0 mm 5 m/s 760 mmHg 63%
    10:00 +30°C° 0 mm 5 m/s 760 mmHg 56%
    11:00 +32°C° 0 mm 5 m/s 760 mmHg 49%
    12:00 +33°C° 0 mm 5 m/s 759 mmHg 48%
    13:00 +33°C° 0 mm 5 m/s 759 mmHg 48%
    14:00 +33°C° 0 mm 5 m/s 758 mmHg 47%
    15:00 +32°C° 0 mm 5 m/s 758 mmHg 50%
    16:00 +32°C° 0 mm 5 m/s 758 mmHg 54%
    17:00 +30°C° 0 mm 5 m/s 758 mmHg 57%
    18:00 +29°C° 0 mm 5 m/s 758 mmHg 62%
    19:00 +28°C° 0 mm 4 m/s 759 mmHg 67%
    20:00 +27°C° 0 mm 4 m/s 759 mmHg 72%
    21:00 +26°C° 0 mm 4 m/s 759 mmHg 73%
    22:00 +26°C° 0 mm 4 m/s 760 mmHg 75%
    23:00 +26°C° 0 mm 4 m/s 760 mmHg 76%

    22 Iunie, Vineri

    Timp Temperatura Precipitaţii Vânt Presiune Umiditate
    00:00 +26°C° 0 mm 4 m/s 760 mmHg 78%
    01:00 +25°C° 0 mm 4 m/s 759 mmHg 79%
    02:00 +25°C° 0 mm 4 m/s 759 mmHg 80%
    03:00 +25°C° 0 mm 4 m/s 759 mmHg 80%
    04:00 +25°C° 0 mm 4 m/s 759 mmHg 80%
    05:00 +25°C° 0 mm 4 m/s 758 mmHg 81%
    06:00 +26°C° 0 mm 4 m/s 759 mmHg 78%
    07:00 +26°C° 0 mm 5 m/s 759 mmHg 76%
    08:00 +27°C° 0 mm 5 m/s 760 mmHg 73%
    09:00 +28°C° 0 mm 5 m/s 760 mmHg 68%
    10:00 +29°C° 0 mm 5 m/s 760 mmHg 64%
    11:00 +30°C° 0 mm 6 m/s 760 mmHg 59%
    12:00 +32°C° 0 mm 6 m/s 759 mmHg 57%
    13:00 +32°C° 0 mm 6 m/s 759 mmHg 54%
    14:00 +33°C° 0 mm 6 m/s 758 mmHg 52%
    15:00 +32°C° 0 mm 6 m/s 758 mmHg 55%
    16:00 +30°C° 0 mm 6 m/s 758 mmHg 58%
    17:00 +29°C° 0 mm 6 m/s 757 mmHg 61%
    18:00 +28°C° 0 mm 6 m/s 758 mmHg 66%
    19:00 +27°C° 0 mm 5 m/s 759 mmHg 70%
    20:00 +26°C° 0 mm 5 m/s 759 mmHg 74%
    21:00 +26°C° 0 mm 4 m/s 759 mmHg 74%
    22:00 +26°C° 0 mm 4 m/s 760 mmHg 75%
    23:00 +26°C° 0 mm 4 m/s 760 mmHg 75%

    23 Iunie, Sâmbătă

    Timp Temperatura Precipitaţii Vânt Presiune Umiditate
    00:00 +26°C° 0 mm 5 m/s 759 mmHg 77%
    01:00 +26°C° 0 mm 5 m/s 758 mmHg 78%
    02:00 +24°C° 0 mm 6 m/s 758 mmHg 79%
    03:00 +25°C° 0 mm 5 m/s 758 mmHg 79%
    04:00 +25°C° 0 mm 5 m/s 758 mmHg 78%
    05:00 +25°C° 0 mm 5 m/s 758 mmHg 78%
    06:00 +26°C° 0 mm 5 m/s 759 mmHg 76%
    07:00 +26°C° 0 mm 5 m/s 759 mmHg 74%
    08:00 +26°C° 0 mm 6 m/s 759 mmHg 72%
    09:00 +28°C° 0 mm 6 m/s 759 mmHg 66%
    10:00 +29°C° 0 mm 6 m/s 759 mmHg 61%
    11:00 +30°C° 0 mm 6 m/s 759 mmHg 56%
    12:00 +32°C° 0 mm 6 m/s 759 mmHg 54%
    13:00 +32°C° 0 mm 6 m/s 758 mmHg 53%
    14:00 +32°C° 0 mm 6 m/s 758 mmHg 51%
    15:00 +32°C° 0 mm 6 m/s 757 mmHg 55%
    16:00 +30°C° 0 mm 6 m/s 757 mmHg 59%
    17:00 +29°C° 0 mm 6 m/s 757 mmHg 63%
    18:00 +28°C° 0 mm 5 m/s 758 mmHg 67%
    19:00 +27°C° 0 mm 5 m/s 758 mmHg 71%
    20:00 +26°C° 0 mm 4 m/s 759 mmHg 75%
    21:00 +26°C° 0 mm 4 m/s 759 mmHg 75%
    22:00 +26°C° 0 mm 4 m/s 759 mmHg 75%
    23:00 +26°C° 0 mm 3 m/s 760 mmHg 75%

    24 Iunie, Duminică

    Timp Temperatura Precipitaţii Vânt Presiune Umiditate
    00:00 +26°C° 0 mm 4 m/s 759 mmHg 76%
    01:00 +26°C° 0 mm 5 m/s 758 mmHg 77%
    02:00 +25°C° 0 mm 5 m/s 757 mmHg 79%
    03:00 +25°C° 0 mm 5 m/s 757 mmHg 79%
    04:00 +25°C° 0 mm 5 m/s 757 mmHg 80%
    05:00 +25°C° 0 mm 5 m/s 757 mmHg 80%
    06:00 +26°C° 0 mm 5 m/s 758 mmHg 78%
    07:00 +26°C° 0 mm 4 m/s 759 mmHg 75%
    08:00 +27°C° 0 mm 3 m/s 759 mmHg 73%
    09:00 +28°C° 0 mm 4 m/s 759 mmHg 67%
    10:00 +29°C° 0 mm 4 m/s 759 mmHg 61%
    11:00 +30°C° 0 mm 4 m/s 759 mmHg 55%
    12:00 +32°C° 0 mm 5 m/s 758 mmHg 54%
    13:00 +32°C° 0 mm 5 m/s 758 mmHg 53%
    14:00 +33°C° 0 mm 5 m/s 757 mmHg 52%
    15:00 +32°C° 0 mm 5 m/s 757 mmHg 56%
    16:00 +30°C° 0 mm 5 m/s 757 mmHg 60%
    17:00 +29°C° 0 mm 5 m/s 757 mmHg 64%
    18:00 +28°C° 0 mm 5 m/s 757 mmHg 68%
    19:00 +27°C° 0 mm 4 m/s 758 mmHg 72%
    20:00 +27°C° 0 mm 4 m/s 758 mmHg 76%
    21:00 +26°C° 0 mm 3 m/s 758 mmHg 77%
    22:00 +26°C° 0 mm 3 m/s 759 mmHg 78%
    23:00 +26°C° 0 mm 3 m/s 759 mmHg 79%
    Arată mai mult